Regional Weather Roundup
Issued by NWS

Home | Current Version | Previous Version | Text Only | Print | Product List | Glossary Off
Versions: 1 2 3 4 5 6 7 8 9 10 11 12 13 14 15 16 17 18 19 20 21 22 23 24 25 26 27 28 29 30 31 32 33 34 35 36 37 38 39 40 41 42 43 44 45 46 47 48 49 50

000
ASUS45 KCYS 120310
RWRWY

WYOMING REGIONAL WEATHER ROUNDUP
NATIONAL WEATHER SERVICE CHEYENNE WY
900 PM MDT FRI JUL 11 2014

NOTE:  "FAIR" INDICATES FEW OR NO CLOUDS BELOW 12,000 FEET
WITH NO SIGNIFICANT WEATHER AND/OR OBSTRUCTIONS TO VISIBILITY.

WYZ001-120400-
YELLOWSTONE NATIONAL PARK

CITY           SKY/WX    TMP DP  RH WIND       PRES   REMARKS
LK YELLOWSTONE   N/A     56  46  69 CALM      30.40R
W YELLOWSTONE  NOT AVBL

$$
WYZ002>013-054>058-071-098>099-120400-
NORTHERN WYOMING

CITY           SKY/WX    TMP DP  RH WIND       PRES   REMARKS
JACKSON        NOT AVBL
CODY           CLOUDY    68  55  64 S10       30.19S
GREYBULL       MOCLDY    69  58  67 E12       30.12R
WORLAND        CLOUDY    72  54  53 S6        30.15R
SHERIDAN       CLOUDY    68  58  70 SE6       30.12R
BUFFALO        CLOUDY    66  56  70 SE10      30.23R
GILLETTE       LGT RAIN  65  59  81 SW5       30.17R
HULETT         MOCLDY    68  55  64 MISG      30.19
NEWCASTLE      FAIR      63  57  82 S5        30.17

$$
WYZ014>020-022>026-101>103-120400-
CENTRAL WYOMING

CITY           SKY/WX    TMP DP  RH WIND       PRES   REMARKS
BIG PINEY      CLOUDY    65  50  58 CALM      30.31R
PINEDALE       CLOUDY    61  50  67 W7        30.33R
DUBOIS         MOCLDY    54  52  94 W3        30.36S
LANDER         CLOUDY    63  55  75 SW10      30.23F
RIVERTON       CLOUDY    62  59  90 W8        30.26R
CASPER         LGT RAIN  63  57  81 E12       30.25R
DOUGLAS        CLOUDY    64  54  69 S8        30.24R

$$
WYZ021-027>030-104>119-120400-
SOUTHERN WYOMING

CITY           SKY/WX    TMP DP  RH WIND       PRES   REMARKS
EVANSTON       CLOUDY    67  55  65 E6        30.29R
KEMMERER       CLOUDY   N/A N/A N/A CALM      30.31R
FORT BRIDGER   CLOUDY    66  53  63 CALM      30.32R
ROCK SPRINGS   CLOUDY    61  54  77 NE17G26   30.29R
DIXON          FAIR      68  55  64 N6        30.25R
RAWLINS        MOCLDY    64  55  72 NE10      30.29R
SARATOGA       FAIR      59  55  88 W10       30.29R
LARAMIE        CLOUDY    63  55  75 NE6       30.32R
CHEYENNE       CLOUDY    64  61  90 N7        30.25S
TORRINGTON     LGT RAIN  64  62  93 N22G28    30.17R FOG

$$


USA.gov is the U.S. government's official web portal to all federal, state and local government web resources and services.